This demonstration page uses our WeatherBlox Daily Observations layout. Learn more.

Left ArrowRight Arrow

Hourly Observations for July 2, 2015

Temp ( °F °C ) Dew Point ( °F °C ) Humidity (%) Winds ( mph kmh ) Pressure ( in mb ) Visibility ( mi km ) Precip ( " mm )
12:52 am 00:52 Cloudy with Strong Thunderstorms 78 25.6 71 21.7 79 79 SSW 25 41 29.75 1007 5 8 0.07 1.78
1:20 am 01:20 Cloudy with Thunderstorms 73 23 70 21 89 89 NE 14 22 29.77 1008 10 16 0.00 0.00
1:52 am 01:52 Windy with Storms Likely 71 21.7 66 18.9 84 84 N 25 41 29.85 1011 5 8 0.11 2.79
1:56 am 01:56 Cloudy with Strong Thunderstorms 70 21 66 19 88 88 ENE 23 37 29.85 1011 3 4 0.00 0.00
2:03 am 02:03 Cloudy with Strong Thunderstorms 68 20 66 19 94 94 NE 21 33 29.88 1012 1 2 0.00 0.00
2:37 am 02:37 Cloudy with Strong Thunderstorms 68 20 67 19.4 96 96 E 13 20 29.83 1010 1 1 1.33 33.78
2:40 am 02:40 Cloudy with Strong Thunderstorms 68 20 66 19 94 94 E 16 26 29.83 1010 1 2 0.00 0.00
2:43 am 02:43 Cloudy with Thunderstorms 69 20.6 67 19.4 93 93 E 16 26 29.83 1010 3 5 1.36 34.54
2:50 am 02:50 Cloudy with Thunderstorms 70 21 66 19 88 88 E 13 20 29.83 1010 10 16 1.36 34.54
2:52 am 02:52 Cloudy with Thunderstorms 69 20.6 67 19.4 93 93 E 9 15 29.82 1010 10 16 1.36 34.54
3:01 am 03:01 Cloudy with Nearby Thunderstorms 70 21.1 67 19.4 90 90 ESE 7 11 29.85 1011 4 6 0.01 0.25
3:05 am 03:05 Cloudy with Strong Thunderstorms 69 20.6 68 20 96 96 SSE 6 9 29.85 1011 3 4 0.06 1.52
3:12 am 03:12 Cloudy with Thunderstorms 70 21 66 19 88 88 SE 13 20 29.85 1011 5 8 0.00 0.00
3:26 am 03:26 Cloudy with Nearby Thunderstorms 70 21.1 67 19.4 90 90 SE 9 15 29.85 1011 10 16 0.17 4.32
3:36 am 03:36 Cloudy 70 21 66 19 88 88 SE 7 11 29.85 1011 10 16 0.00 0.00
3:52 am 03:52 Cloudy with Light Rain 70 21.1 67 19.4 90 90 SSE 13 20 29.83 1010 10 16 0.17 4.32
4:05 am 04:05 Cloudy 70 21.1 67 19.4 90 90 SSE 12 19 29.85 1011 10 16 0.00 0.03
4:34 am 04:34 Cloudy with Nearby Thunderstorms 70 21 66 19 88 88 SSE 14 22 29.83 1010 10 16 0.00 0.00
4:52 am 04:52 Cloudy with Nearby Thunderstorms 70 21.1 66 18.9 87 87 SSE 10 17 29.82 1010 10 16 0.00 0.03
5:03 am 05:03 Cloudy with Thunderstorms 70 21 66 19 88 88 SE 8 13 29.83 1010 10 16 0.00 0.00
5:15 am 05:15 Cloudy with Thunderstorms 70 21.1 66 18.9 87 87 SE 9 15 29.83 1010 10 16 0.00 0.00
5:44 am 05:44 Cloudy with Thunderstorms 70 21 66 19 88 88 E 9 15 29.85 1011 10 16 0.00 0.00
5:48 am 05:48 Cloudy with Nearby Thunderstorms 70 21 66 19 88 88 E 7 11 29.85 1011 10 16 0.00 0.00
5:52 am 05:52 Cloudy with Nearby Thunderstorms 70 21.1 67 19.4 90 90 ENE 6 9 29.83 1010 10 16 0.00 0.00
6:03 am 06:03 Cloudy 70 21 66 19 88 88 VRB 6 9 29.85 1011 10 16 0.00 0.00
6:52 am 06:52 Mostly Sunny 70 21.1 67 19.4 90 90 SSE 10 17 29.81 1010 10 16 0.00 0.00
7:52 am 07:52 Mostly Sunny 71 21.7 67 19.4 87 87 S 15 24 29.81 1009 10 16 0.00 0.00
8:50 am 08:50 Mostly Cloudy 73 23 68 20 83 83 SSE 15 24 29.80 1009 10 16 0.00 0.00
8:52 am 08:52 Cloudy 72 22.2 68 20 87 87 SSE 15 24 29.83 1010 10 16 0.00 0.00
9:25 am 09:25 Cloudy 72 22.2 67 19.4 84 84 S 9 15 29.83 1010 10 16 0.00 0.00
9:46 am 09:46 Cloudy 72 22 66 19 83 83 SSE 8 13 29.83 1010 10 16 0.00 0.00
9:52 am 09:52 Cloudy 71 21.7 68 20 90 90 SSE 9 15 29.84 1011 10 16 0.00 0.00
10:00 am 10:00 Cloudy 72 22 68 20 88 88 SSE 8 13 29.83 1010 10 16 0.00 0.00
10:38 am 10:38 Cloudy 73 23 68 20 83 83 SSE 10 17 29.83 1010 10 16 0.00 0.00
10:52 am 10:52 Mostly Cloudy 75 23.9 70 21.1 84 84 S 8 13 29.83 1010 10 16 0.00 0.00
10:59 am 10:59 Mostly Cloudy 75 23.9 70 21.1 84 84 SSE 8 13 29.83 1010 10 16 0.00 0.00
11:52 am 11:52 Cloudy 77 25 71 21.7 82 82 S 5 7 29.83 1010 10 16 0.00 0.00
12:24 pm 12:24 Mostly Cloudy 79 26 72 22 79 79 SSW 6 9 29.83 1010 10 16 0.00 0.00
12:52 pm 12:52 Cloudy 82 27.8 73 22.8 74 74 NW 6 9 29.84 1011 10 16 0.00 0.00
1:00 pm 13:00 Mostly Cloudy 82 27.8 73 22.8 74 74 N 8 13 29.83 1010 10 16 0.00 0.00
1:09 pm 13:09 Mostly Cloudy 83 28.3 72 22.2 70 70 Calm 29.83 1010 10 16 0.00 0.00
1:52 pm 13:52 Mostly Cloudy 83 28.3 73 22.8 72 72 NNE 8 13 29.84 1010 10 16 0.00 0.00
2:09 pm 14:09 Mostly Cloudy 82 27.8 73 22.8 74 74 NNE 13 20 29.83 1010 10 16 0.00 0.00
2:42 pm 14:42 Mostly Cloudy 83 28.3 72 22.2 70 70 NE 7 11 29.83 1010 10 16 0.00 0.00
2:52 pm 14:52 Mostly Cloudy 82 27.8 72 22.2 72 72 N 9 15 29.84 1010 10 16 0.00 0.00
3:14 pm 15:14 Mostly Cloudy 82 28 73 23 74 74 NNE 9 15 29.83 1010 10 16 0.00 0.00
3:41 pm 15:41 Mostly Cloudy 83 28.3 73 22.8 72 72 N 8 13 29.83 1010 10 16 0.00 0.00
3:52 pm 15:52 Mostly Cloudy 82 27.8 73 22.8 74 74 NNW 9 15 29.84 1010 10 16 0.00 0.00
4:52 pm 16:52 Mostly Cloudy 81 27.2 72 22.2 74 74 N 10 17 29.83 1010 10 16 0.00 0.00
5:52 pm 17:52 Cloudy 79 26.1 72 22.2 79 79 N 12 19 29.85 1011 10 16 0.00 0.00
6:52 pm 18:52 Mostly Cloudy with Light Rain 78 25.6 71 21.7 79 79 NNE 8 13 29.85 1011 10 16 0.00 0.03
7:52 pm 19:52 Mostly Cloudy 76 24.4 71 21.7 85 85 NNE 9 15 29.82 1010 10 16 0.00 0.03
7:59 pm 19:59 Mostly Cloudy 76 24.4 71 21.7 85 85 NNE 8 13 29.80 1009 10 16 0.00 0.00
8:24 pm 20:24 Cloudy 75 24 72 22 89 89 NNE 7 11 29.83 1010 10 16 0.00 0.00
8:35 pm 20:35 Cloudy 76 24.4 71 21.7 85 85 NNE 5 7 29.83 1010 10 16 0.00 0.00
8:44 pm 20:44 Cloudy 75 24 72 22 89 89 Calm 29.85 1011 10 16 0.00 0.00
8:52 pm 20:52 Cloudy 76 24.4 71 21.7 85 85 N 3 6 29.87 1011 10 16 0.00 0.00
9:52 pm 21:52 Mostly Cloudy 75 23.9 71 21.7 88 88 N 6 9 29.87 1012 10 16 0.00 0.00
10:21 pm 22:21 Mostly Cloudy 74 23.3 71 21.7 91 91 N 8 13 29.85 1011 10 16 0.00 0.00
10:47 pm 22:47 Cloudy 73 23 70 21 89 89 N 7 11 29.88 1012 10 16 0.00 0.00
10:52 pm 22:52 Cloudy 74 23.3 70 21.1 88 88 N 7 11 29.89 1012 10 16 0.00 0.00
11:19 pm 23:19 Mostly Cloudy 73 22.8 70 21.1 90 90 NNE 6 9 29.88 1012 10 16 0.00 0.00
11:50 pm 23:50 Partly Cloudy 72 22 70 21 94 94 NNE 5 7 29.91 1013 10 16 0.00 0.00
11:52 pm 23:52 Mostly Cloudy 72 22.2 69 20.6 91 91 NNE 5 7 29.89 1012 10 16 0.00 0.00

Powered by AerisWeather